DW5759 Weather Reports


Display with metric or nautical units.
time (UTC)temp
F
wind
direction
speed
MPH
gust
MPH
rain 1hr
in
rain 24hr
in
rain mn
in
humidity
%
barometer
mb
20260905081523 59 164 0.0 0.0 0.00 0.04 0.00 92 1010.0
20260905080041 59 298 0.0 0.0 0.00 0.05 0.00 92 1009.9
20260905074509 59 298 0.0 0.0 0.00 0.05 0.00 91 1010.0
20260905073021 60 298 0.0 0.0 0.00 0.06 0.00 91 1010.0
20260905071521 60 298 0.0 0.0 0.00 0.06 0.00 91 1010.2
20260905070031 60 298 0.0 0.0 0.00 0.07 0.00 91 1010.3
20260905064504 60 298 0.0 0.0 0.00 0.08 0.00 91 1010.3
20260905063009 60 298 0.0 0.0 0.00 0.09 0.00 90 1010.4
20260905061520 60 298 0.0 0.0 0.00 0.09 0.00 90 1010.5
20260905060037 60 297 0.0 0.0 0.00 0.10 0.00 90 1010.7
20260905054531 60 298 0.0 0.0 0.00 0.10 0.00 90 1010.8
20260905053008 61 297 0.0 0.0 0.00 0.10 0.00 89 1010.9
20260905051514 61 297 0.0 0.0 0.00 0.10 0.00 89 1011.1
20260905050019 62 297 0.0 0.0 0.00 0.10 0.00 88 1011.3
20260905044532 62 297 0.0 0.0 0.00 0.10 0.00 88 1011.1
20260905043028 62 297 0.0 0.0 0.00 0.10 0.00 88 1011.1
20260905041509 63 298 0.0 0.0 0.00 0.10 0.00 87 1011.1
20260905040015 64 297 0.0 0.0 0.00 0.10 0.00 86 1011.2
20260905034522 64 297 0.0 0.0 0.00 0.10 0.10 86 1011.2
20260905033026 65 298 0.0 0.0 0.00 0.10 0.10 84 1011.0
20260905031537 66 297 0.0 0.0 0.00 0.10 0.10 83 1010.8
20260905030014 66 298 0.0 0.0 0.00 0.10 0.10 85 1010.8
20260905024517 65 332 0.0 0.0 0.00 0.10 0.10 85 1010.9
20260905023021 65 328 0.0 0.0 0.00 0.10 0.10 85 1010.8
20260905021536 65 323 0.0 0.0 0.00 0.10 0.10 85 1011.0
20260905020031 66 326 0.0 0.0 0.00 0.10 0.10 85 1011.0
20260905014536 65 323 0.0 0.0 0.00 0.10 0.10 86 1010.9
20260905013018 66 324 0.0 0.0 0.00 0.10 0.10 86 1010.9
20260905011525 67 323 0.0 0.0 0.00 0.10 0.10 84 1010.9
20260905010032 67 323 0.0 1.0 0.00 0.10 0.10 84 1011.0
20260905004512 67 325 0.0 0.0 0.00 0.10 0.10 83 1011.0
20260905003017 68 325 0.0 0.0 0.00 0.10 0.10 84 1011.0
20260905001503 68 318 0.0 0.0 0.00 0.10 0.10 83 1010.8
20260905000013 69 318 0.0 0.0 0.00 0.10 0.10 83 1010.6
20260904234507 70 285 0.0 0.0 0.00 0.10 0.10 82 1010.4
20260904233032 71 328 0.0 0.0 0.00 0.10 0.10 81 1010.5
20260904231522 73 334 0.0 0.0 0.00 0.10 0.10 79 1010.5
20260904230005 74 307 0.0 0.0 0.00 0.10 0.10 76 1010.4
20260904224503 76 307 0.0 0.0 0.00 0.10 0.10 77 1010.4
20260904223009 77 307 0.0 0.0 0.00 0.10 0.10 69 1010.3
20260904221514 78 291 0.0 0.0 0.00 0.10 0.10 68 1010.1
20260904220017 79 292 0.0 0.0 0.00 0.10 0.10 64 1010.0
20260904214504 80 285 0.0 0.0 0.00 0.10 0.10 62 1010.0
20260904213007 80 281 0.0 1.0 0.00 0.10 0.10 59 1009.8
20260904211514 80 290 0.0 0.0 0.00 0.10 0.10 60 1010.0
20260904210018 80 322 0.0 1.0 0.00 0.10 0.10 58 1010.0
20260904204522 81 323 0.0 1.0 0.00 0.10 0.10 56 1010.3
20260904203016 82 294 0.0 1.0 0.00 0.10 0.10 58 1010.2
20260904201507 82 295 0.0 0.0 0.00 0.10 0.10 57 1010.2
20260904200021 82 272 0.0 1.0 0.00 0.10 0.10 57 1010.3
20260904194518 83 283 0.0 0.0 0.00 0.10 0.10 56 1010.5
20260904193021 83 241 0.0 1.0 0.00 0.10 0.10 56 1010.4
20260904191504 83 359 0.0 2.0 0.00 0.10 0.10 59 1010.4
20260904190008 83 333 0.0 1.0 0.00 0.10 0.10 54 1010.7
20260904184516 82 290 0.0 0.0 0.00 0.10 0.10 55 1010.8
20260904183017 80 274 0.0 1.0 0.00 0.10 0.10 62 1010.9
20260904181517 80 51 0.0 0.0 0.00 0.10 0.10 66 1011.0
20260904180010 80 71 0.0 0.0 0.00 0.10 0.10 62 1011.0
20260904174519 80 56 0.0 4.0 0.00 0.10 0.10 60 1011.0
20260904173017 79 283 0.0 4.0 0.00 0.10 0.10 62 1010.9
20260904171525 79 68 0.0 0.0 0.00 0.10 0.10 64 1011.1
20260904170021 79 359 0.0 0.0 0.00 0.10 0.10 62 1010.9
20260904164511 79 5 0.0 3.0 0.00 0.10 0.10 63 1011.1
20260904163020 79 323 0.0 2.0 0.00 0.10 0.10 65 1011.1
20260904161519 79 4 0.0 5.0 0.00 0.10 0.10 64 1011.5
20260904160026 78 243 1.0 9.0 0.00 0.10 0.10 63 1011.6
20260904154510 78 27 1.0 6.0 0.01 0.10 0.10 66 1011.6
20260904153015 77 297 0.0 4.0 0.01 0.11 0.10 67 1011.8
20260904151517 77 280 0.0 4.0 0.01 0.11 0.10 73 1011.9
20260904150036 76 359 0.0 2.0 0.01 0.11 0.10 80 1012.1
20260904144505 75 302 0.0 0.0 0.01 0.10 0.09 81 1012.1
20260904143026 74 122 0.0 0.0 0.01 0.10 0.09 87 1012.2
20260904141510 73 307 0.0 0.0 0.01 0.10 0.09 89 1012.1
20260904140019 72 157 0.0 0.0 0.01 0.10 0.09 93 1012.1
20260904134527 71 174 0.0 0.0 0.00 0.09 0.08 96 1012.1
20260904133030 71 109 0.0 0.0 0.00 0.09 0.08 96 1012.1
20260904131512 70 163 0.0 0.0 0.00 0.09 0.08 96 1012.1
20260904130026 69 176 0.0 0.0 0.00 0.09 0.08 96 1012.2
20260904124529 69 143 0.0 0.0 0.00 0.09 0.08 96 1012.1
20260904123027 69 336 0.0 0.0 0.00 0.09 0.08 96 1012.0
20260904121528 68 336 0.0 0.0 0.01 0.09 0.08 96 1011.9
20260904120018 68 336 0.0 0.0 0.01 0.10 0.08 96 1011.8
20260904114538 67 336 0.0 0.0 0.01 0.10 0.08 95 1011.6
20260904113038 67 336 0.0 0.0 0.01 0.10 0.08 95 1011.6
20260904111506 67 336 0.0 0.0 0.00 0.09 0.07 95 1011.3
20260904110032 67 336 0.0 0.0 0.00 0.10 0.07 95 1011.2
20260904104534 67 336 0.0 0.0 0.00 0.10 0.07 95 1011.1
20260904103034 67 336 0.0 0.0 0.00 0.11 0.07 95 1010.9
20260904101530 68 336 0.0 0.0 0.01 0.11 0.07 95 1010.9
20260904100007 68 336 0.0 0.0 0.01 0.11 0.07 95 1011.0
20260904094515 69 332 0.0 0.0 0.01 0.11 0.07 95 1010.9
20260904093020 69 332 0.0 0.0 0.01 0.12 0.07 95 1011.1
20260904091526 69 332 0.0 0.0 0.00 0.12 0.06 95 1010.9
20260904090029 69 332 0.0 0.0 0.01 0.12 0.06 95 1010.7
20260904084511 69 332 0.0 0.0 0.01 0.13 0.06 95 1010.6
20260904083016 70 332 0.0 0.0 0.02 0.14 0.06 95 1010.2